CAPE
0 0 0 1 0 0 0 0 15 19 20 17 46 38 64 68 61 42 22 111 23 2 2 0 0 15 13 6 1 10 0 20 0 1 3 0 0 0 0 0 1 0 0 4 68 68 27 316 52 34 507 709 664 549
0 0 0 0 0 0 0 0 0 11 12 9 11 40 29 15 24 10 14 56 51 26 0 0 0 1 1 1 3 1 0 0 19 20 12 9 0 5 6 0 0 0 0 0 0 0 4 497 882 845 784 692 742 582
0 0 0 0 0 0 0 0 5 7 10 9 4 3 1 0 24 8 15 53 35 4 0 0 1 22 2 0 0 0 0 0 2 6 11 9 25 58 31 13 106 21 88 72 14 91 858 634 492 701 715 877 976 1486
0 0 0 0 0 0 0 4 8 7 8 5 3 2 4 7 1 4 24 8 15 3 3 0 0 2 0 7 0 0 0 0 6 4 2 4 11 0 0 0 29 112 97 259 55 666 859 852 916 945 963 1363 1574 1331
0 0 0 0 0 3 4 5 5 2 0 0 0 3 5 0 5 2 15 11 7 2 2 0 0 0 0 0 0 0 0 0 0 0 10 3 31 3 6 0 0 0 19 85 455 267 711 392 522 518 472 568 629 587
0 0 0 0 0 2 1 8 5 5 0 0 0 0 0 0 0 8 3 15 49 26 6 4 0 0 46 0 0 0 0 0 0 22 13 0 15 19 5 14 18 1 22 175 1 0 0 1 3 40 18 1 3 1
0 0 0 0 0 0 0 0 0 0 0 0 0 0 0 0 0 14 7 2 0 5 15 3 0 0 13 0 3 5 0 0 8 7 1 0 5 6 26 4 4 43 37 10 0 0 0 0 0 0 0 0 0 0
0 0 0 0 0 0 0 0 0 0 0 0 0 0 0 0 0 1 6 0 0 9 7 1 0 2 74 5 32 33 24 7 5 3 0 19 4 4 32 12 35 24 28 27 0 0 2 0 0 0 0 0 0 0
0 0 0 0 0 0 0 0 1 0 0 0 0 0 0 0 0 31 0 0 0 0 1 4 1 18 0 4 35 21 11 0 9 0 8 1 0 2 1 13 4 2 11 2 0 0 0 0 0 0 0 0 0 0
0 0 0 0 0 0 0 0 3 0 0 0 0 9 21 13 0 0 1 1 0 2 2 3 0 4 0 1 2 0 2 0 5 4 3 2 3 1 6 1 0 0 0 9 0 0 0 0 0 0 0 0 0 0
0 0 0 0 0 0 0 0 1 0 0 5 6 4 0 0 4 2 6 4 6 3 3 6 46 27 29 10 15 6 0 16 4 2 4 4 2 9 2 12 4 0 0 0 0 1 0 0 0 0 0 0 0 0
0 0 0 0 0 0 0 0 0 0 0 0 0 0 0 10 13 1 1 2 3 0 0 33 35 22 25 44 0 0 8 2 1 13 2 0 2 24 16 5 5 6 5 1 8 9 3 1 0 0 0 0 2 32
0 0 0 0 0 0 0 0 0 0 0 4 7 14 12 14 1 7 1 33 14 1 36 64 11 0 4 1 8 2 8 6 3 3 2 2 0 9 18 4 10 15 1 0 0 0 26 4 8 19 16 7 15 25
0 0 0 0 0 0 0 0 0 0 0 2 1 0 0 2 0 4 46 27 31 0 8 39 45 0 8 1 10 0 3 16 3 0 1 0 17 24 29 35 16 6 39 31 15 10 45 59 14 24 29 40 75 71
0 0 0 0 0 0 0 0 0 0 6 1 1 0 11 30 40 43 23 8 28 10 24 72 90 51 33 31 20 15 23 1 2 3 4 1 0 46 21 18 30 23 8 28 25 21 35 26 5 37 36 11 39 34
0 0 0 0 0 0 0 0 0 24 65 74 33 11 34 3 23 32 43 61 138 140 36 25 3 1 1 8 1 1 1 0 1 0 2 5 24 4 2 24 59 32 45 45 28 47 29 22 18 10 5 16 25 53
0 0 0 0 0 0 0 0 21 14 11 16 25 34 41 26 16 10 36 49 71 64 2 2 14 15 1 0 1 4 1 1 15 10 9 8 1 2 20 32 23 67 64 67 83 16 38 21 10 9 12 11 11 34
0 0 0 0 0 0 0 0 24 10 11 33 36 57 48 53 44 13 35 1 6 36 34 6 5 3 4 3 4 5 7 1 7 12 8 12 20 24 13 8 83 75 64 46 16 40 14 10 3 0 8 0 0 7
0 0 0 0 0 0 0 0 3 10 22 27 33 49 57 83 58 120 43 33 28 9 1 3 6 24 30 72 60 91 121 112 78 114 60 55 72 66 103 147 60 15 11 1 1 14 10 0 0 0 0 0 0 0
0 0 0 0 0 4 6 1 10 10 17 10 21 42 70 71 120 81 43 48 5 11 12 40 90 122 102 106 114 137 145 74 33 15 17 55 30 32 49 40 41 39 15 13 0 0 0 0 0 0 0 0 0 0
0 0 0 0 7 12 16 2 9 3 2 6 56 51 51 45 36 31 20 34 1 28 45 106 66 37 21 17 29 76 101 106 54 93 55 47 32 20 8 6 6 6 2 0 0 0 0 0 0 0 0 0 0 0
0 0 0 0 9 10 9 13 7 4 4 34 13 31 11 6 4 2 3 0 0 9 15 14 9 0 0 0 0 0 0 102 151 43 37 42 35 24 18 12 8 5 2 0 0 0 0 0 0 0 0 0 0 0
0 0 0 4 0 0 60 45 72 31 28 33 76 34 31 24 19 0 0 4 8 31 58 44 64 45 18 3 0 0 0 0 4 0 0 0 3 4 14 14 11 3 1 0 0 0 0 0 0 0 0 0 0 0
0 0 0 9 151 40 168 111 115 128 189 176 131 54 93 63 79 28 25 15 13 20 12 15 9 6 2 0 0 0 0 0 0 0 0 0 0 1 0 0 0 0 0 0 0 0 0 0 0 0 0 0 0 0
0 0 96 3 324 146 64 60 49 64 56 70 48 57 123 114 8 7 13 4 1 1 2 7 7 5 2 0 0 0 0 0 0 0 0 0 0 0 0 0 0 0 0 0 0 0 0 0 0 0 0 0 0 0
6 263 50 27 78 45 75 17 36 99 88 26 63 123 2 13 4 7 3 2 5 5 5 7 7 4 0 0 0 0 0 0 0 0 0 1 0 0 0 0 0 0 0 0 0 0 0 0 0 0 0 0 0 0
74 199 410 522 319 224 287 221 97 67 67 123 244 141 63 4 3 0 2 3 3 2 2 2 2 0 0 0 0 0 0 0 0 0 0 0 0 0 0 0 0 0 0 0 0 0 0 0 0 0 0 0 0 0
456 558 5 0 187 16 0 66 64 47 58 86 181 40 3 1 2 2 0 0 1 0 0 0 2 0 0 0 0 0 0 0 0 0 0 0 0 0 0 0 0 0 0 0 0 0 0 0 0 0 0 0 0 0
355 102 223 172 124 79 41 2 12 0 0 9 113 5 1 1 1 7 3 0 8 22 11 6 0 0 0 0 0 0 0 0 0 0 0 0 0 0 0 0 0 0 0 0 0 0 0 0 0 0 0 0 0 0
39 87 131 0 39 34 12 13 5 0 0 0 0 0 0 2 2 8 26 30 16 11 2 0 0 0 0 0 0 0 0 0 0 0 0 0 0 0 0 0 0 0 0 0 0 0 0 0 0 0 0 0 0 0
38 32 40 98 79 42 12 31 3 1 4 1 5 4 5 3 22 7 0 0 0 0 0 0 0 0 0 0 0 0 0 0 0 0 0 0 0 0 0 0 0 0 0 0 0 0 0 0 0 0 0 1 1 1
42 23 17 24 222 166 225 175 36 10 6 8 0 0 9 13 18 8 3 3 1 0 0 0 0 0 0 0 0 0 0 0 0 0 0 0 0 0 0 0 0 0 0 0 0 0 0 0 0 0 0 0 0 1
27 19 21 22 34 75 293 382 275 114 10 6 24 38 42 17 10 2 15 3 0 0 0 0 0 0 0 0 0 0 0 0 0 0 0 0 0 0 0 0 0 0 0 0 0 0 0 0 0 0 0 0 1 1
CIN
-0 -0 -0 -0 -0 -0 -0 -0 -0 -0 -0 -0 -5 -4 -3 -2 -5 -1 -1 -2 -1 -0 -0 -0 -0 -2 -2 -1 -2 -0 -0 -57 -0 -1 -0 -0 -0 -0 -0 -0 -5 -0 -0 -15 -4 -5 -46 -33 -120 -34 -28 -51 -50 -45
-0 -0 -0 -0 -0 -0 -0 -0 -0 -2 -1 -2 -8 -1 -3 -6 -4 -2 -0 -2 -1 -7 -0 -0 -0 -4 -0 -1 -2 -2 -0 -0 -5 -5 -2 -1 -0 -1 -0 -0 -0 -0 -0 -0 -37 -1 -6 -18 -12 -42 -33 -30 -42 -58
-0 -0 -0 -0 -0 -0 -0 -2 -8 -10 -8 -6 -5 -2 -0 -0 -1 -3 -1 -2 -1 -0 -0 -0 -58 -43 -47 -0 -0 -0 -0 -1 -2 -8 -0 -1 -0 -10 -2 -1 -24 -8 -161 -4 -15 -10 -11 -33 -32 -38 -42 -27 -24 -44
-0 -0 -0 -0 -0 -0 -0 -11 -8 -8 -6 -4 -2 -1 -0 -2 -2 -2 -0 -4 -1 -1 -0 -0 -2 -22 -1 -6 -0 -0 -0 -0 -7 -2 -1 -1 -0 -0 -0 -0 -26 -35 -151 -111 -10 -13 -24 -29 -28 -18 -47 -59 -73 -149
-0 -0 -0 -0 -0 -16 -11 -11 -10 -12 -0 -0 -0 -2 -4 -0 -3 -2 -1 -1 -7 -1 -0 -0 -0 -0 -0 -0 -0 -0 -0 -0 -0 -0 -0 -4 -4 -3 -4 -2 -0 -0 -78 -72 -20 -145 -30 -41 -53 -80 -133 -147 -205 -219
-0 -0 -0 -0 -0 -18 -14 -8 -10 -10 -0 -0 -0 -0 -0 -0 -0 -1 -0 -8 -3 -0 -1 -1 -0 -0 -4 -0 -0 -0 -0 -0 -0 -1 -25 -0 -9 -1 -0 -0 -0 -4 -32 -1 -4 -0 -0 -4 -5 -181 -256 -10 -10 -10
-0 -0 -0 -0 -0 -0 -0 -0 -0 -0 -0 -0 -0 -0 -0 -0 -0 -0 -0 -4 -0 -4 -0 -0 -0 -0 -66 -0 -1 -7 -0 -2 -8 -9 -0 -0 -2 -18 -2 -0 -11 -0 -8 -7 -0 -0 -0 -0 -0 -0 -0 -0 -0 -0
-0 -0 -0 -0 -0 -0 -0 -0 -0 -0 -0 -0 -0 -0 -0 -0 -0 -0 -1 -0 -0 -1 -1 -0 -0 -0 -39 -4 -3 -5 -5 -28 -10 -2 -1 -0 -3 -24 -1 -8 -1 -14 -3 -10 -0 -0 -1 -0 -0 -0 -0 -0 -0 -0
-0 -0 -0 -0 -0 -0 -0 -0 -0 -0 -0 -0 -0 -0 -0 -0 -0 -2 -0 -0 -0 -0 -0 -0 -0 -1 -0 -5 -6 -7 -21 -0 -24 -0 -0 -0 -0 -0 -3 -5 -0 -60 -3 -0 -0 -0 -0 -0 -0 -0 -0 -0 -0 -0
-0 -0 -0 -0 -0 -0 -0 -0 -0 -0 -0 -0 -0 -1 -0 -4 -0 -25 -7 -0 -0 -0 -0 -0 -0 -0 -0 -2 -2 -0 -5 -1 -0 -0 -2 -0 -0 -6 -2 -0 -0 -0 -0 -0 -0 -0 -0 -0 -0 -0 -0 -0 -0 -0
-0 -0 -0 -0 -0 -0 -0 -0 -0 -0 -0 -3 -0 -1 -0 -0 -5 -3 -0 -0 -0 -0 -0 -5 -3 -1 -16 -1 -2 -19 -9 -4 -0 -0 -0 -0 -0 -0 -0 -0 -2 -1 -0 -0 -0 -0 -0 -0 -0 -0 -0 -0 -0 -0
-0 -0 -0 -0 -0 -0 -0 -0 -0 -0 -0 -0 -0 -0 -0 -0 -0 -0 -0 -0 -0 -0 -0 -4 -3 -1 -2 -8 -0 -0 -2 -1 -0 -0 -0 -0 -1 -0 -0 -3 -5 -11 -10 -5 -27 -25 -25 -7 -2 -0 -0 -0 -12 -15
-0 -0 -0 -0 -0 -0 -0 -0 -0 -0 -0 -1 -0 -0 -1 -1 -0 -0 -1 -2 -0 -0 -3 -10 -3 -0 -5 -11 -1 -2 -0 -0 -2 -0 -0 -0 -0 -0 -2 -1 -1 -14 -16 -0 -0 -3 -1 -0 -2 -14 -48 -66 -48 -47
-0 -0 -0 -0 -0 -0 -0 -0 -0 -0 -0 -1 -0 -0 -0 -0 -0 -0 -14 -14 -0 -0 -105 -50 -27 -10 -7 -0 -1 -0 -1 -2 -0 -0 -0 -0 -0 -1 -7 -4 -7 -7 -2 -4 -9 -3 -1 -5 -17 -9 -20 -7 -11 -8
-0 -0 -0 -0 -0 -0 -0 -0 -0 -0 -3 -0 -3 -0 -2 -6 -12 -11 -48 -22 -1 -4 -58 -6 -1 -31 -38 -1 -2 -0 -0 -0 -0 -0 -0 -6 -0 -2 -10 -4 -3 -5 -8 -3 -18 -23 -33 -3 -8 -2 -6 -17 -8 -13
-0 -0 -0 -0 -0 -0 -0 -0 -0 -39 -4 -1 -9 -7 -2 -4 -3 -5 -4 -1 -1 -1 -9 -5 -8 -14 -0 -0 -0 -0 -0 -0 -0 -2 -4 -8 -2 -5 -14 -19 -8 -3 -1 -2 -15 -17 -29 -39 -1 -2 -2 -2 -9 -4
-0 -0 -0 -0 -0 -0 -0 -0 -64 -5 -2 -3 -4 -2 -2 -4 -4 -14 -30 -18 -1 -0 -6 -1 -0 -0 -2 -0 -0 -0 -0 -0 -0 -1 -9 -11 -15 -15 -12 -16 -13 -4 -3 -5 -2 -16 -13 -4 -6 -10 -4 -7 -2 -4
-0 -0 -0 -0 -0 -0 -0 -0 -112 -3 -1 -3 -4 -1 -1 -3 -3 -3 -4 -8 -3 -2 -2 -1 -1 -0 -0 -0 -0 -0 -1 -9 -6 -10 -18 -11 -9 -12 -38 -50 -5 -5 -1 -5 -14 -6 -9 -2 -13 -0 -2 -0 -0 -0
-0 -0 -0 -0 -0 -0 -0 -0 -2 -2 -2 -3 -4 -4 -5 -3 -5 -0 -1 -1 -7 -4 -11 -7 -3 -0 -0 -0 -1 -0 -2 -5 -6 -7 -10 -10 -9 -8 -9 -4 -8 -9 -16 -9 -6 -1 -4 -2 -0 -0 -0 -0 -0 -0
-0 -0 -0 -0 -0 -2 -2 -1 -3 -2 -2 -2 -3 -17 -6 -5 -2 -5 -10 -5 -4 -21 -0 -1 -0 -0 -0 -0 -3 -3 -7 -17 -23 -14 -8 -0 -2 -4 -2 -0 -0 -0 -1 -1 -0 -0 -0 -0 -0 -0 -0 -0 -0 -0
-0 -0 -0 -0 -1 -2 -0 -1 -3 -1 -8 -2 -34 -12 -12 -20 -12 -4 -3 -9 -18 -0 -0 -1 -6 -8 -10 -12 -9 -6 -10 -4 -17 -11 -3 -4 -9 -3 -7 -10 -6 -8 -3 -0 -0 -0 -0 -0 -0 -0 -0 -0 -0 -0
-0 -0 -0 -2 -29 -3 -4 -3 -1 -6 -9 -1 -1 -9 -18 -37 -16 -1 -1 -0 -3 -4 -12 -12 -7 -0 -0 -0 -0 -0 -2 -3 -3 -4 -6 -10 -3 -2 -3 -2 -3 -4 -3 -0 -0 -0 -0 -0 -0 -0 -0 -0 -0 -0
-0 -0 -0 -53 -53 -0 -18 -9 -1 -3 -4 -3 -5 -0 -0 -0 -0 -0 -0 -3 -5 -10 -12 -5 -0 -0 -0 -2 -0 -0 -0 -0 -1 -0 -0 -0 -4 -6 -4 -4 -3 -4 -3 -0 -0 -0 -0 -0 -0 -0 -0 -0 -0 -0
-0 -0 -0 -81 -10 -14 -1 -2 -9 -3 -1 -0 -1 -4 -4 -4 -3 -1 -1 -3 -4 -4 -11 -3 -2 -3 -1 -0 -0 -0 -0 -0 -0 -0 -0 -0 -0 -4 -0 -0 -0 -0 -0 -1 -0 -0 -0 -0 -0 -0 -0 -0 -1 -0
-0 -0 -46 -19 -5 -2 -2 -1 -1 -1 -3 -1 -7 -5 -4 -6 -1 -2 -1 -0 -9 -8 -3 -1 -2 -1 -4 -1 -0 -0 -0 -0 -0 -0 -0 -0 -0 -0 -0 -0 -0 -0 -0 -0 -0 -0 -0 -0 -0 -0 -0 -0 -0 -0
-4 -13 -7 -10 -1 -17 -11 -7 -8 -2 -2 -3 -4 -2 -116 -97 -1 -0 -1 -1 -2 -2 -1 -1 -1 -2 -1 -0 -0 -0 -0 -0 -0 -0 -0 -5 -0 -0 -0 -0 -0 -0 -0 -0 -0 -0 -0 -0 -0 -0 -0 -0 -0 -0
-13 -4 -3 -0 -1 -2 -2 -0 -3 -4 -7 -3 -2 -3 -2 -9 -0 -1 -1 -1 -1 -1 -2 -2 -1 -0 -0 -0 -0 -0 -0 -0 -0 -0 -0 -0 -0 -0 -0 -0 -0 -0 -0 -0 -0 -0 -0 -0 -0 -0 -0 -0 -0 -0
-1 -1 -19 -0 -30 -39 -0 -12 -5 -7 -4 -1 -2 -3 -2 -1 -0 -0 -0 -0 -1 -0 -0 -0 -5 -0 -0 -0 -0 -0 -0 -0 -0 -0 -0 -0 -0 -0 -0 -0 -0 -0 -0 -0 -0 -0 -0 -0 -0 -0 -0 -0 -0 -0
-2 -68 -2 -1 -2 -7 -27 -9 -2 -0 -0 -32 -3 -0 -0 -0 -0 -1 -1 -1 -4 -1 -3 -5 -10 -0 -0 -0 -0 -0 -0 -0 -0 -0 -0 -0 -0 -0 -0 -0 -0 -0 -0 -0 -0 -0 -0 -0 -0 -0 -0 -0 -0 -0
-8 -13 -15 -0 -5 -13 -4 -3 -2 -0 -0 -0 -0 -0 -0 -0 -1 -2 -4 -3 -2 -4 -3 -0 -0 -0 -0 -0 -0 -0 -0 -0 -0 -0 -0 -0 -0 -0 -0 -0 -0 -0 -0 -0 -0 -0 -0 -0 -0 -0 -0 -0 -2 -1
-4 -4 -10 -8 -6 -12 -3 -9 -5 -2 -1 -1 -1 -3 -2 -5 -1 -0 -0 -0 -0 -0 -0 -0 -0 -0 -0 -0 -0 -0 -0 -0 -0 -0 -0 -0 -0 -0 -0 -0 -0 -0 -0 -0 -0 -0 -0 -0 -0 -0 -2 -3 -4 -5
-3 -2 -3 -3 -2 -14 -5 -2 -5 -2 -7 -12 -0 -0 -1 -6 -2 -1 -3 -3 -3 -0 -0 -0 -0 -0 -0 -0 -0 -0 -0 -0 -0 -0 -0 -0 -0 -0 -0 -0 -0 -0 -0 -0 -0 -0 -0 -0 -1 -4 -4 -2 -4 -3
-1 -3 -2 -2 -2 -13 -1 -5 -13 -5 -1 -6 -1 -1 -1 -3 -2 -12 -4 -5 -0 -0 -0 -0 -0 -0 -0 -0 -0 -0 -0 -0 -0 -0 -0 -0 -0 -0 -0 -0 -0 -0 -0 -0 -0 -0 -0 -0 -3 -4 -3 -2 -3 -3
Wind_Speed
33 33 33 32 29 28 27 24 19 17 15 13 14 20 20 11 10 12 22 15 16 24 35 29 32 34 33 32 30 25 24 24 31 32 30 31 36 34 36 40 38 40 37 37 35 35 39 11 19 23 24 20 22 23
33 33 32 29 28 26 28 29 25 21 18 15 12 22 22 23 21 17 20 20 19 28 32 35 31 36 37 35 33 29 24 23 19 29 29 27 37 31 31 39 37 44 43 41 37 40 37 14 17 15 15 17 20 23
30 28 26 26 27 29 25 23 21 15 10 13 19 10 2 10 12 10 18 22 24 27 30 26 26 29 33 33 36 36 29 23 23 20 26 25 29 26 31 32 33 38 25 43 40 37 28 25 19 16 14 15 16 18
25 22 24 29 31 29 29 28 19 8 11 9 5 4 6 9 12 12 12 13 15 19 20 21 22 25 24 27 33 36 35 28 24 24 23 27 28 21 30 33 32 28 31 31 40 28 20 17 15 16 12 11 13 15
21 24 25 24 25 22 19 11 5 7 4 3 3 3 4 6 8 10 11 11 12 18 17 21 23 23 27 28 27 30 33 32 28 24 22 24 26 25 26 28 29 25 26 26 28 27 24 19 13 10 8 11 12 14
26 25 22 21 16 15 12 8 5 4 1 0 2 4 4 6 8 10 10 13 14 17 14 13 16 16 19 30 27 28 28 29 27 24 23 24 28 22 23 22 19 21 25 22 13 7 1 8 5 7 5 8 10 12
23 24 22 20 15 13 9 6 5 6 8 7 6 3 6 8 8 11 13 11 14 14 15 13 15 16 14 21 26 24 26 26 24 22 26 26 25 22 23 24 19 17 17 7 4 9 14 12 8 5 5 7 9 12
21 20 19 17 14 11 9 8 8 10 8 6 5 6 8 9 10 11 13 12 14 15 15 14 15 15 22 26 23 23 23 20 18 20 23 22 21 21 23 20 15 10 9 4 6 1 3 3 6 6 9 9 10 12
14 15 15 13 11 11 10 10 10 10 10 8 7 7 9 12 12 11 13 12 16 16 14 15 16 15 15 18 18 22 22 20 18 18 18 16 20 20 20 20 13 10 8 1 2 5 6 5 7 8 8 9 10 13
12 13 14 11 10 10 11 11 11 10 10 9 5 11 10 10 13 11 12 15 17 16 15 15 18 10 13 22 19 20 22 19 15 13 12 10 13 15 14 11 7 6 8 3 3 4 6 7 9 11 13 13 14 15
11 13 13 12 10 11 12 11 10 8 3 10 11 10 3 5 11 14 13 12 13 12 15 14 12 12 18 22 16 14 16 15 17 17 15 12 9 9 9 4 3 4 4 7 8 8 11 11 10 13 13 15 17 21
11 11 11 11 10 11 12 10 6 1 5 7 7 7 9 10 12 13 9 11 16 14 14 15 12 9 15 16 14 16 16 15 13 15 11 12 11 5 3 4 2 3 5 6 8 10 10 13 17 15 14 13 14 18
8 10 11 9 10 11 11 8 3 5 6 12 11 12 7 14 10 7 6 12 13 11 12 9 9 10 13 14 15 14 14 15 22 10 11 15 13 10 7 12 7 6 9 10 10 11 14 15 16 14 13 14 13 15
10 11 10 8 10 12 12 5 3 7 13 11 7 1 10 7 9 5 4 6 11 12 10 9 8 12 16 15 9 10 8 11 11 11 12 13 8 7 4 9 9 8 10 12 13 15 15 18 18 17 16 16 13 14
11 14 9 6 11 14 10 3 6 12 10 9 11 7 4 3 3 2 5 3 15 0 11 7 10 2 3 11 7 9 11 10 9 9 10 13 8 4 7 8 10 10 10 13 15 15 16 16 19 19 17 16 13 14
11 10 15 13 16 13 4 4 13 15 14 11 9 11 16 11 15 12 10 11 16 5 5 6 4 10 8 11 9 5 7 5 12 17 22 19 5 6 8 6 5 12 12 14 15 16 16 16 17 16 15 14 15 14
10 12 11 17 15 8 4 14 14 17 14 5 7 9 10 12 16 8 10 10 9 9 13 2 5 7 12 10 13 17 10 17 16 18 16 8 8 6 4 5 16 13 13 10 11 15 13 16 16 16 16 16 17 18
6 6 10 9 8 4 16 15 13 18 12 8 1 7 8 9 14 15 11 7 7 4 6 6 11 6 8 12 17 13 20 16 11 21 21 2 8 9 0 10 15 18 21 21 15 17 18 20 19 20 21 21 20 20
2 6 5 4 5 12 14 16 13 14 13 6 1 4 6 10 8 9 9 9 13 5 4 5 4 4 4 6 4 5 4 4 8 12 15 16 17 20 21 20 20 21 20 20 21 21 21 21 22 22 22 22 23 22
1 6 2 5 13 13 14 14 13 13 12 7 3 3 3 9 10 9 11 12 11 13 8 6 13 14 13 13 13 15 15 14 16 21 20 20 22 20 19 20 20 20 21 21 22 22 23 23 24 25 24 24 24 25
11 9 8 12 18 13 13 13 14 15 12 9 4 11 8 7 6 10 11 8 15 15 18 19 22 22 20 20 21 23 21 21 22 20 21 20 21 22 21 22 22 21 22 23 23 24 24 25 26 27 26 25 25 26
10 4 14 17 16 14 20 16 16 12 12 15 20 21 16 13 11 11 14 10 7 6 3 8 17 24 26 24 23 23 20 21 24 24 22 21 22 22 22 23 23 23 23 23 24 25 25 26 27 28 27 27 27 26
6 15 13 15 16 18 17 16 15 15 18 15 14 19 17 19 19 19 20 14 13 11 15 13 6 27 26 28 29 26 24 24 27 26 26 26 23 24 26 24 24 22 22 24 26 27 28 29 30 29 28 27 27 26
14 13 14 13 13 14 14 17 16 16 14 14 15 17 19 20 21 23 21 7 10 23 23 22 23 25 26 26 27 28 26 28 28 28 29 28 27 26 27 24 24 24 26 28 29 30 31 31 31 30 30 30 28 27
15 16 16 17 17 16 18 14 10 13 12 11 14 14 17 19 20 20 22 20 21 21 25 25 27 29 29 30 30 31 32 31 31 30 29 28 27 27 26 25 25 27 31 30 32 33 33 32 32 32 32 32 32 31
15 16 17 16 17 18 13 14 15 13 13 14 5 10 16 21 22 22 23 27 27 30 30 31 32 32 32 32 32 32 32 33 33 32 32 30 26 26 27 28 30 32 33 31 31 33 33 33 33 34 34 34 34 34
13 17 13 12 11 15 13 13 16 24 24 22 25 25 22 25 23 20 22 27 27 29 31 32 29 30 32 33 33 33 33 33 34 33 31 25 26 27 29 30 31 32 32 30 31 32 32 34 35 33 33 32 31 32
8 7 31 22 12 25 26 17 26 23 21 15 20 24 22 22 20 18 19 21 24 26 26 24 26 29 33 34 33 33 32 33 34 32 29 24 27 29 31 31 31 31 30 28 31 30 31 34 31 31 30 31 31 31
8 2 17 16 15 18 21 24 27 23 18 19 22 22 20 19 19 19 21 21 20 22 28 32 32 32 33 33 31 32 31 32 34 34 32 31 31 32 33 31 31 30 30 30 26 25 30 30 29 27 30 30 30 31
5 18 17 13 18 21 27 22 22 25 29 29 26 24 22 20 18 18 17 21 27 29 32 31 31 32 32 32 31 29 28 29 30 31 31 30 30 31 30 31 30 30 30 29 28 28 28 30 29 29 30 30 31 32
10 12 17 18 18 22 19 22 22 23 24 25 24 23 22 19 17 21 27 26 26 27 28 28 28 29 29 29 29 28 26 27 29 31 31 26 27 27 29 29 29 29 28 29 28 29 30 31 31 31 31 32 32 32
13 15 11 17 18 18 18 18 18 16 17 20 21 19 18 18 20 18 22 25 24 25 25 24 25 26 27 26 27 26 23 24 26 29 31 28 27 26 27 29 29 31 30 30 29 30 30 30 30 30 30 32 32 33
16 18 16 17 15 16 16 17 17 16 15 17 19 20 18 22 23 22 20 24 25 25 24 21 22 24 25 25 26 22 23 22 23 23 25 24 22 21 21 27 29 31 31 30 28 28 28 28 29 30 31 31 32 32
Wind_Direction
2 2 2 3 6 7 9 12 14 16 19 18 10 359 352 341 209 349 322 326 313 304 288 246 243 247 243 239 248 264 284 262 250 241 242 241 238 240 240 234 230 231 233 239 242 244 246 246 250 253 256 270 275 287
4 4 7 11 14 17 16 15 18 23 25 26 29 356 354 336 335 341 325 323 318 290 277 265 244 243 245 237 239 236 241 256 267 239 237 241 233 244 244 236 242 237 240 244 247 247 246 290 258 270 278 282 291 293
12 17 21 22 19 16 19 23 26 35 40 41 25 47 154 230 215 189 224 252 275 272 255 237 238 240 232 222 225 233 234 252 246 258 246 243 237 245 238 243 252 242 266 247 246 250 257 255 262 274 279 296 296 311
26 29 26 21 17 19 22 24 37 47 51 53 71 152 211 219 220 199 196 201 202 232 237 245 243 243 257 224 205 226 225 242 242 244 254 242 240 254 247 251 255 256 262 257 243 241 243 252 254 270 275 297 314 319
30 28 26 27 28 32 38 43 37 51 59 98 127 164 168 179 189 206 197 191 176 213 229 249 253 239 221 211 212 217 215 217 237 242 245 243 241 241 251 251 250 258 256 253 247 256 240 242 253 272 284 307 309 314
27 27 31 33 37 43 46 42 25 26 356 158 209 214 192 203 214 220 156 159 171 185 195 190 238 234 214 187 191 202 219 216 229 229 234 232 225 240 237 241 252 259 253 255 238 287 261 237 250 296 316 324 325 332
34 35 37 38 42 44 35 16 1 324 294 276 252 209 211 211 193 176 177 206 241 204 186 184 192 201 219 199 187 203 204 208 219 223 221 234 231 244 231 226 268 278 254 234 243 268 277 291 263 316 16 350 346 353
41 41 42 43 43 36 22 356 320 306 303 288 252 218 210 210 201 170 165 171 185 173 175 169 188 199 194 172 180 200 192 204 221 227 241 235 231 237 224 239 238 248 227 284 198 300 55 227 263 340 6 348 348 354
45 43 40 36 31 25 6 338 322 312 300 278 248 224 172 146 146 154 136 143 150 159 159 165 178 184 247 229 215 185 190 200 221 235 238 243 234 235 242 240 256 275 260 330 347 14 357 318 302 332 337 339 344 326
42 35 29 18 4 346 336 328 322 306 282 267 180 131 134 134 104 115 145 127 120 127 155 189 165 171 197 179 193 189 186 193 216 228 222 268 269 269 260 275 287 281 289 303 19 327 314 316 309 294 299 311 309 302
31 26 17 10 356 345 335 326 322 310 196 124 109 122 199 176 130 110 101 117 127 158 158 159 174 188 166 179 209 212 197 193 175 189 192 218 260 268 284 332 322 285 341 17 16 18 20 7 336 315 309 314 300 288
21 11 358 353 359 3 340 334 322 202 128 122 134 139 112 124 114 102 109 113 111 140 151 150 148 197 174 172 185 194 183 184 181 187 209 191 196 219 275 18 358 315 312 311 322 325 337 9 26 14 7 345 323 291
337 330 338 346 1 340 358 329 338 138 153 115 122 109 125 92 92 92 94 101 80 154 193 178 157 182 164 73 169 196 195 163 156 184 180 173 186 203 22 39 14 355 358 351 329 297 6 15 14 4 353 27 345 307
320 317 321 353 355 340 317 310 95 123 111 135 155 184 97 88 89 89 294 326 27 87 242 214 202 138 148 166 196 184 190 180 176 181 173 176 202 213 325 6 4 333 334 6 357 2 14 34 26 7 360 2 356 352
315 308 303 8 340 323 307 246 143 111 132 136 124 288 93 67 330 210 238 327 49 352 238 210 181 278 186 154 184 199 184 174 185 177 195 185 195 272 337 339 3 360 358 360 4 4 11 14 22 27 18 5 342 349
312 305 55 317 318 316 309 172 107 96 104 125 130 309 314 316 326 324 327 334 346 15 236 294 188 149 130 139 154 192 200 205 184 161 143 153 232 321 324 311 296 17 10 11 10 8 5 10 5 357 349 347 341 332
294 63 306 306 309 291 100 100 102 91 102 161 290 303 309 313 331 314 323 338 339 20 10 316 141 117 138 120 139 139 156 145 153 156 161 189 192 214 296 254 14 8 4 337 336 353 342 3 353 355 349 322 337 353
76 277 293 298 305 156 96 97 111 98 108 110 266 318 315 311 328 326 325 326 341 20 48 53 130 83 113 107 129 142 145 161 172 144 137 213 329 353 306 330 354 6 11 30 357 5 358 358 355 348 349 5 346 331
315 265 265 274 117 114 107 100 116 111 109 109 86 330 317 326 319 333 332 347 360 16 48 128 130 54 54 111 39 24 5 342 353 5 18 23 25 45 45 36 28 26 15 9 0 7 6 353 342 334 335 334 333 336
143 127 191 154 111 120 117 116 121 119 116 126 132 119 336 339 342 344 358 1 6 14 16 25 17 15 13 5 2 7 7 2 6 25 16 18 21 15 6 16 17 22 16 9 8 352 349 345 344 335 336 334 333 326
102 102 124 116 108 117 123 121 117 115 123 125 120 123 115 111 67 24 14 17 22 16 20 21 23 17 10 8 7 14 8 6 7 1 3 2 357 3 3 4 3 1 354 348 347 350 351 345 342 335 338 340 336 329
109 130 113 106 112 121 106 110 122 129 126 112 105 106 110 111 109 102 104 52 74 94 54 353 358 12 11 5 358 354 342 350 17 13 22 25 9 359 355 350 350 349 351 351 346 344 345 345 343 335 337 334 331 335
128 108 120 114 114 108 108 115 114 119 115 116 124 112 110 108 109 108 105 105 108 110 101 103 91 10 9 14 9 353 343 341 356 3 349 350 8 349 345 349 349 358 354 351 346 342 339 338 337 332 336 340 336 337
116 117 115 123 120 115 119 108 112 112 119 120 113 106 100 101 97 89 24 335 332 357 350 347 350 350 354 351 352 352 336 339 341 358 355 350 347 354 1 356 359 356 344 343 341 339 336 334 335 334 335 332 334 332
109 98 101 89 98 96 92 112 130 119 112 121 109 114 109 98 87 85 358 332 333 333 342 341 346 353 348 346 347 346 344 342 343 343 350 348 345 345 348 2 357 350 345 340 334 333 333 336 335 334 330 332 332 329
104 96 90 87 92 89 119 112 101 100 99 90 149 108 345 19 28 26 15 356 360 357 360 356 352 350 353 351 347 348 347 347 347 342 341 345 349 345 344 341 339 341 342 343 342 337 334 335 334 331 329 328 327 326
111 77 98 114 125 89 111 109 87 36 36 35 9 17 19 11 15 26 18 353 355 352 351 354 0 357 352 350 349 347 347 348 348 345 345 356 356 351 347 342 340 339 339 343 342 339 337 335 332 332 332 333 333 332
140 152 10 15 133 65 70 81 45 49 46 57 38 31 30 27 31 38 26 21 13 5 8 12 7 3 356 352 351 351 352 352 350 348 347 359 359 354 349 346 345 344 344 348 346 346 345 339 340 340 340 338 339 340
132 325 77 88 96 86 73 62 51 57 57 57 51 50 52 61 65 54 40 36 31 19 5 357 356 356 355 355 359 359 3 360 354 351 347 342 340 340 344 345 346 348 349 348 355 357 355 351 347 348 347 347 347 346
135 90 86 109 82 76 52 73 70 62 52 54 63 64 64 63 58 50 40 27 16 10 4 3 5 4 4 4 6 11 19 18 13 7 0 358 353 349 349 347 349 349 351 352 353 355 359 353 355 353 351 350 350 348
121 109 89 85 88 76 82 74 72 70 68 64 64 62 61 59 57 51 34 30 29 27 22 19 17 17 16 14 14 17 20 21 20 14 12 16 10 6 0 360 0 0 1 357 360 359 355 353 353 353 352 352 353 354
99 82 96 76 80 81 81 79 73 74 73 65 61 64 63 55 44 46 40 35 35 33 33 33 30 26 23 23 20 24 29 28 25 20 14 16 17 18 15 7 4 359 1 1 2 2 1 359 360 359 359 358 359 360
78 65 79 72 76 69 72 61 59 65 70 63 54 53 54 50 42 41 41 37 34 32 36 39 38 35 34 32 28 34 35 39 40 41 40 41 42 40 38 19 14 6 5 7 9 11 11 10 7 4 2 2 4 7